Hourly Weather Roundup
Issued by NWS Central Illinois

Home | Current Version | Previous Version | Text Only | Print | Product List | Glossary On
Versions: 1 2 3 4 5 6 7 8 9 10 11 12 13 14 15 16 17 18 19 20 21 22 23 24 25 26 27 28 29 30 31 32 33 34 35 36 37 38 39 40 41 42 43 44 45 46 47 48 49 50
000
NZUS43 KILX 151410
HWRILX

AREA WEATHER ROUNDUP
NATIONAL WEATHER SERVICE, LINCOLN IL
900 AM CDT TUE APR 15 2014


CITY           SKY/WX    TMP DP  RH WIND       PRES   REMARKS
BLOOMINGTON    SUNNY     29  21  71 NW12      30.14R WCI  19
CHAMPAIGN      PTSUNNY   32  26  78 NW12      30.12R WCI  23
DANVILLE       SUNNY     31  24  76 N12       30.08S WCI  21
DECATUR        SUNNY     34  24  67 NW13      30.15R WCI  25
FLORA          SUNNY     35  26  69 N9        30.16S WCI  28
GALESBURG      SUNNY     32  23  69 NW13      30.16S WCI  22
JACKSONVILLE   SUNNY     33  22  63 NW10G16   30.20R WCI  25
LACON          SUNNY     31  25  77 NW7       30.14S WCI  24
LAWRENCEVILLE  PTSUNNY   37  26  64 NW14      30.14R WCI  28
LITCHFIELD     SUNNY     32  24  73 NW12      30.19R WCI  23
$$


CITY           SKY/WX    TMP DP  RH WIND       PRES   REMARKS
LINCOLN        SUNNY     34  25  69 NW8       30.17S WCI  27
MACOMB         SUNNY     32  22  66 NW12      30.20S WCI  23
MATTOON        MOSUNNY   32  25  75 N16       30.13R WCI  21
MT CARMEL AP   PTSUNNY   36  28  75 N17G23    30.14R WCI  25
OLNEY-NOBLE AP CLOUDY    34  27  75 N12       30.16R WCI  25
PARIS          MOSUNNY   33  26  73 NW13      30.13R WCI  24
PEORIA         SUNNY     32  22  66 NW7       30.16R WCI  26
PONTIAC        SUNNY     30  27  86 NW8       30.13S WCI  23
RANTOUL        MOSUNNY   33  25  73 NW12      30.13R WCI  24
ROBINSON       MOSUNNY   36  28  72 N12       30.15R WCI  28
SPRINGFIELD    SUNNY     34  22  61 NW13      30.18R WCI  25
TAYLORVILLE    SUNNY     32  25  74 NW9       30.17R WCI  24
$$

...REGIONAL REPORTS...


CITY           SKY/WX    TMP DP  RH WIND       PRES   REMARKS
CHICAGO O`HARE MOSUNNY   29  14  53 N10       30.09R WCI  20
KANKAKEE         N/A     31  21  67 NW9       30.12R WCI  22
MOLINE         SUNNY     32  19  58 NW14      30.16R WCI  22
MOUNT VERNON   MOSUNNY   36  18  48 NW3       30.18R
PITTSFIELD     SUNNY     34  21  57 NW8       30.21S WCI  27
QUINCY         SUNNY     33  18  53 NW10      30.20R WCI  25
ROCKFORD       SUNNY     29  14  53 N5        30.14R WCI  24
$$


CITY           SKY/WX    TMP DP  RH WIND       PRES   REMARKS
BURLINGTON     SUNNY     32  17  54 N10       30.18R WCI  24
CEDAR RAPIDS   SUNNY     29  13  51 NW16      30.15S WCI  17
DES MOINES     SUNNY     31  17  56 N7        30.21S WCI  24
KIRKSVILLE     SUNNY     34  20  56 N7        30.20F WCI  28
OTTUMWA        PTSUNNY   30  21  69 NW10      30.19R WCI  21
ST LOUIS       SUNNY     37  20  50 NW15      30.22R WCI  28
$$


CITY           SKY/WX    TMP DP  RH WIND       PRES   REMARKS
TERRE HAUTE    PTSUNNY   34  21  59 N16G23    30.12R WCI  24
EVANSVILLE     MOSUNNY   37  24  59 N17G26    30.14R WCI  27
INDIANAPOLIS   PTSUNNY   31  24  75 NW15      30.07R WCI  20
LAFAYETTE      PTSUNNY   31  25  78 N15       30.10R WCI  20
MADISON        MOSUNNY   27  14  58 NW6       30.11R WCI  20
MILWAUKEE      MOSUNNY   27  13  55 NW9       30.10R WCI  18
$$





USA.gov is the U.S. government's official web portal to all federal, state and local government web resources and services.